TimeCST,TemperatureF,Dew PointF,Humidity,Sea Level PressureIn,VisibilityMPH,Wind Direction,Wind SpeedMPH,Gust SpeedMPH,PrecipitationIn,Events,Conditions,WindDirDegrees,DateUTC
12:15 AM,48.2,39.2,71,30.06,10.0,NNE,3.5,-,N/A,,Clear,20,2013-02-14 06:15:00
12:35 AM,48.2,39.2,71,30.09,10.0,Calm,Calm,-,N/A,,Clear,0,2013-02-14 06:35:00
12:55 AM,48.2,37.4,66,30.08,10.0,NNE,5.8,-,N/A,,Clear,20,2013-02-14 06:55:00
1:15 AM,48.2,37.4,66,30.08,10.0,ENE,4.6,-,N/A,,Clear,60,2013-02-14 07:15:00
1:35 AM,48.2,37.4,66,30.08,10.0,NE,5.8,-,N/A,,Clear,50,2013-02-14 07:35:00
1:55 AM,48.2,37.4,66,30.08,10.0,NNE,3.5,-,N/A,,Clear,20,2013-02-14 07:55:00
2:15 AM,46.4,37.4,71,30.08,10.0,NNE,5.8,-,N/A,,Clear,20,2013-02-14 08:15:00
2:35 AM,46.4,37.4,71,30.09,10.0,NNE,4.6,-,N/A,,Clear,20,2013-02-14 08:35:00
2:55 AM,46.4,37.4,71,30.10,10.0,NE,4.6,-,N/A,,Clear,50,2013-02-14 08:55:00
3:15 AM,46.4,37.4,71,30.09,10.0,NNE,4.6,-,N/A,,Clear,20,2013-02-14 09:15:00
3:35 AM,46.4,37.4,71,30.09,10.0,NE,4.6,-,N/A,,Clear,50,2013-02-14 09:35:00
3:55 AM,46.4,37.4,71,30.09,10.0,NE,3.5,-,N/A,,Clear,50,2013-02-14 09:55:00
4:15 AM,46.4,37.4,71,30.08,10.0,NNE,4.6,-,N/A,,Clear,30,2013-02-14 10:15:00
4:35 AM,46.4,37.4,71,30.08,10.0,NNE,5.8,-,N/A,,Clear,30,2013-02-14 10:35:00
4:55 AM,46.4,35.6,66,30.08,10.0,ENE,4.6,-,N/A,,Clear,60,2013-02-14 10:55:00
5:15 AM,46.4,35.6,66,30.09,10.0,Calm,Calm,-,N/A,,Clear,0,2013-02-14 11:15:00
5:35 AM,46.4,37.4,71,30.10,10.0,ENE,4.6,-,N/A,,Clear,70,2013-02-14 11:35:00
5:55 AM,46.4,37.4,71,30.11,10.0,NE,5.8,-,N/A,,Clear,50,2013-02-14 11:55:00
6:15 AM,46.4,35.6,66,30.13,10.0,ENE,5.8,-,N/A,,Clear,60,2013-02-14 12:15:00
6:35 AM,46.4,35.6,66,30.13,10.0,NE,3.5,-,N/A,,Clear,40,2013-02-14 12:35:00
6:55 AM,46.4,37.4,71,30.15,10.0,NE,3.5,-,N/A,,Clear,50,2013-02-14 12:55:00
7:15 AM,46.4,37.4,71,30.15,10.0,NE,4.6,-,N/A,,Clear,50,2013-02-14 13:15:00
7:35 AM,46.4,37.4,71,30.13,10.0,NE,9.2,-,N/A,,Clear,40,2013-02-14 13:35:00
7:55 AM,46.4,37.4,71,30.14,10.0,NNE,4.6,-,N/A,,Clear,20,2013-02-14 13:55:00
8:15 AM,46.4,37.4,71,30.16,10.0,ENE,8.1,-,N/A,,Clear,60,2013-02-14 14:15:00
8:35 AM,48.2,39.2,71,30.17,10.0,North,3.5,-,N/A,,Scattered Clouds,10,2013-02-14 14:35:00
8:55 AM,48.2,39.2,71,30.18,10.0,ENE,4.6,-,N/A,,Partly Cloudy,60,2013-02-14 14:55:00
9:15 AM,48.2,37.4,66,30.19,10.0,ENE,5.8,-,N/A,,Clear,70,2013-02-14 15:15:00
9:35 AM,48.2,37.4,66,30.17,10.0,NNE,5.8,-,N/A,,Clear,30,2013-02-14 15:35:00
9:55 AM,48.2,35.6,62,30.16,10.0,NE,4.6,-,N/A,,Clear,40,2013-02-14 15:55:00
10:15 AM,50.0,35.6,58,30.17,8.0,NNE,6.9,-,N/A,,Clear,30,2013-02-14 16:15:00
10:35 AM,51.8,35.6,54,30.18,10.0,NE,6.9,-,N/A,,Clear,40,2013-02-14 16:35:00
10:55 AM,51.8,35.6,54,30.17,10.0,North,4.6,-,N/A,,Clear,10,2013-02-14 16:55:00
11:15 AM,51.8,37.4,58,30.16,10.0,North,4.6,-,N/A,,Clear,10,2013-02-14 17:15:00
11:35 AM,53.6,37.4,54,30.15,10.0,East,3.5,-,N/A,,Clear,100,2013-02-14 17:35:00
11:55 AM,53.6,37.4,54,30.14,10.0,NE,5.8,-,N/A,,Clear,50,2013-02-14 17:55:00
12:15 PM,53.6,37.4,54,30.14,10.0,Calm,Calm,-,N/A,,Clear,0,2013-02-14 18:15:00
12:35 PM,55.4,37.4,51,30.13,10.0,East,3.5,-,N/A,,Clear,100,2013-02-14 18:35:00
12:55 PM,55.4,37.4,51,30.12,10.0,SSE,3.5,-,N/A,,Clear,150,2013-02-14 18:55:00
1:15 PM,55.4,37.4,51,30.11,10.0,NE,4.6,-,N/A,,Clear,50,2013-02-14 19:15:00
1:35 PM,57.2,37.4,48,30.10,10.0,Calm,Calm,-,N/A,,Clear,0,2013-02-14 19:35:00
1:55 PM,57.2,37.4,48,30.09,10.0,Calm,Calm,-,N/A,,Clear,0,2013-02-14 19:55:00
2:15 PM,57.2,37.4,48,30.09,10.0,Calm,Calm,-,N/A,,Clear,0,2013-02-14 20:15:00
2:35 PM,59.0,35.6,42,30.09,10.0,NW,3.5,-,N/A,,Clear,320,2013-02-14 20:35:00
2:55 PM,59.0,33.8,39,30.09,10.0,Calm,Calm,-,N/A,,Clear,0,2013-02-14 20:55:00
3:15 PM,59.0,33.8,39,30.08,10.0,Calm,Calm,-,N/A,,Clear,0,2013-02-14 21:15:00
3:35 PM,60.8,35.6,39,30.08,10.0,WNW,3.5,-,N/A,,Clear,290,2013-02-14 21:35:00
3:55 PM,59.0,37.4,45,30.08,10.0,NW,6.9,-,N/A,,Clear,310,2013-02-14 21:55:00
4:15 PM,59.0,37.4,45,30.08,10.0,North,3.5,-,N/A,,Clear,350,2013-02-14 22:15:00
4:35 PM,59.0,37.4,45,30.07,9.0,Calm,Calm,-,N/A,,Clear,0,2013-02-14 22:35:00
4:55 PM,57.2,37.4,48,30.07,9.0,Calm,Calm,-,N/A,,Clear,0,2013-02-14 22:55:00
5:15 PM,57.2,37.4,48,30.07,10.0,NNW,3.5,-,N/A,,Clear,330,2013-02-14 23:15:00
5:35 PM,57.2,37.4,48,30.08,10.0,Calm,Calm,-,N/A,,Clear,0,2013-02-14 23:35:00
5:55 PM,55.4,37.4,51,30.09,10.0,Calm,Calm,-,N/A,,Clear,0,2013-02-14 23:55:00
6:15 PM,55.4,37.4,51,30.09,10.0,NNW,3.5,-,N/A,,Clear,340,2013-02-15 00:15:00
6:35 PM,55.4,39.2,54,30.10,10.0,Calm,Calm,-,N/A,,Clear,0,2013-02-15 00:35:00
6:55 PM,55.4,37.4,51,30.09,10.0,Calm,Calm,-,N/A,,Clear,0,2013-02-15 00:55:00
7:15 PM,53.6,39.2,58,30.10,10.0,Calm,Calm,-,N/A,,Clear,0,2013-02-15 01:15:00
7:35 PM,55.4,37.4,51,30.10,10.0,Calm,Calm,-,N/A,,Clear,0,2013-02-15 01:35:00
7:55 PM,55.4,37.4,51,30.11,10.0,Calm,Calm,-,N/A,,Clear,0,2013-02-15 01:55:00
8:15 PM,53.6,39.2,58,30.11,10.0,South,4.6,-,N/A,,Clear,170,2013-02-15 02:15:00
8:35 PM,53.6,39.2,58,30.11,10.0,SSE,3.5,-,N/A,,Clear,160,2013-02-15 02:35:00
8:55 PM,53.6,39.2,58,30.11,10.0,SSE,3.5,-,N/A,,Clear,160,2013-02-15 02:55:00
9:15 PM,53.6,39.2,58,30.11,10.0,South,3.5,-,N/A,,Clear,170,2013-02-15 03:15:00
9:35 PM,53.6,39.2,58,30.11,10.0,South,3.5,-,N/A,,Clear,170,2013-02-15 03:35:00
9:55 PM,53.6,39.2,58,30.12,10.0,South,3.5,-,N/A,,Clear,170,2013-02-15 03:55:00
10:15 PM,53.6,39.2,58,30.12,10.0,South,3.5,-,N/A,,Clear,180,2013-02-15 04:15:00
10:35 PM,51.8,39.2,62,30.12,10.0,Calm,Calm,-,N/A,,Clear,0,2013-02-15 04:35:00
10:55 PM,51.8,39.2,62,30.13,10.0,South,3.5,-,N/A,,Clear,190,2013-02-15 04:55:00
11:15 PM,51.8,39.2,62,30.12,10.0,South,3.5,-,N/A,,Clear,190,2013-02-15 05:15:00
11:35 PM,51.8,39.2,62,30.12,10.0,Calm,Calm,-,N/A,,Clear,0,2013-02-15 05:35:00
11:55 PM,51.8,37.4,58,30.12,10.0,Calm,Calm,-,N/A,,Clear,0,2013-02-15 05:55:00